Regional Weather Roundup
Issued by NWS

Home | Current Version | Previous Version | Graphics & Text | Print | Product List | Glossary On
Versions: 1 2 3 4 5 6 7 8 9 10 11 12 13 14 15 16 17 18 19 20 21 22 23 24 25 26 27 28 29 30 31 32 33 34 35 36 37 38 39 40 41 42 43 44 45 46 47 48 49 50
000
ASUS45 KCYS 312210
RWRWY

WYOMING REGIONAL WEATHER ROUNDUP
NATIONAL WEATHER SERVICE CHEYENNE WY
400 PM MDT THU JUL 31 2014

NOTE:  "FAIR" INDICATES FEW OR NO CLOUDS BELOW 12,000 FEET
WITH NO SIGNIFICANT WEATHER AND/OR OBSTRUCTIONS TO VISIBILITY.

WYZ001-312300-
YELLOWSTONE NATIONAL PARK

CITY           SKY/WX    TMP DP  RH WIND       PRES   REMARKS
LK YELLOWSTONE   N/A     65  40  39 CALM      30.43F
W YELLOWSTONE  NOT AVBL

$$
WYZ002>013-054>058-071-098>099-312300-
NORTHERN WYOMING

CITY           SKY/WX    TMP DP  RH WIND       PRES   REMARKS
JACKSON        CLOUDY    79  41  25 MISG      30.30S
CODY           PTSUNNY   82  37  20 NE7       30.19F
GREYBULL       SUNNY     91  33  12 E7        30.09F
WORLAND        SUNNY     89  35  14 W8        30.12F
SHERIDAN       MOSUNNY   87  39  18 VRB7      30.12F
BUFFALO        MOSUNNY   76  42  29 SW16G28   30.24R
GILLETTE       MOSUNNY   88  36  15 VRB6      30.16F
HULETT         FAIR      84  36  17 MISG      30.18
NEWCASTLE      FAIR      86  32  14 S6        30.17

$$
WYZ014>020-022>026-101>103-312300-
CENTRAL WYOMING

CITY           SKY/WX    TMP DP  RH WIND       PRES   REMARKS
BIG PINEY      PTSUNNY   73  37  27 SW7       30.35F
PINEDALE       PTCLDY    73  36  25 SW8       30.35F
DUBOIS         CLOUDY    70  34  26 N7G20     30.37R
LANDER         SUNNY     85  26  11 VRB5      30.22F
RIVERTON       SUNNY     81  28  14 E7        30.24F
CASPER         SUNNY     83  24  11 VRB7      30.22F
DOUGLAS        SUNNY     83  36  18 SE9       30.22F

$$
WYZ021-027>030-104>119-312300-
SOUTHERN WYOMING

CITY           SKY/WX    TMP DP  RH WIND       PRES   REMARKS
EVANSTON       SUNNY     74  41  30 NE9       30.34S
KEMMERER       PTCLDY    72  37  28 E9        30.36F
FORT BRIDGER   FAIR      74  40  29 E12       30.37F
ROCK SPRINGS   NOT AVBL
DIXON          FAIR      80  42  25 SW3       30.27F
RAWLINS        SUNNY     77  34  21 NE15G21   30.31F
SARATOGA       FAIR      73  39  29 N7        30.32F
LARAMIE        PTSUNNY   73  41  31 MISG      30.34F
CHEYENNE       MOSUNNY   73  43  33 SW6       30.30S
TORRINGTON     SUNNY     85  42  22 SW8       30.17F
PINE BLUFFS    FAIR      79  43  27 SE6       30.25S

$$



USA.gov is the U.S. government's official web portal to all federal, state and local government web resources and services.